Home > Weather > Yonkers > Past weeks

Flag for USA Past Weather in Yonkers, New York, USA — Yesterday and Last 2 Weeks

Now
92 °F

Partly sunny.


Feels Like: 92 °F
Forecast: 72 / 91 °F
Wind: 9 mph from Northwest

Location: Teterboro Airport

Current Time: Jul 27, 2016 at 3:22:57 PM

Latest Report: Jul 27, 2016 at 2:51 PM


Visibility: 10 mi

Pressure: 29.90 "Hg

Humidity: 35%

Dew Point: 60 °F

Location of YonkersLocation

Past Weather in Yonkers — Graph

°F

Yonkers Temperature Yesterday

Maximum temperature yesterday: 91 °F (at 2:51 PM)
Minimum temperature yesterday: 71 °F (at 5:51 AM)
Average temperature yesterday: 82 °F

High & Low Weather Summary for the Past Weeks

 TemperatureHumidityPressure
High97 °F (Jul 22, 3:51 PM)94% (Jul 25, 6:58 PM)30.23 "Hg (Jul 25, 6:58 PM)
Low67 °F (Jul 20, 5:51 AM)22% (Jul 23, 4:51 PM)29.76 "Hg (Jul 22, 6:51 PM)
Average81 °F57%29.97 "Hg
* Reported Jul 12 1:51 PM — Jul 27 1:51 PM, Yonkers, Weather by CustomWeather, © 2016

Note: Actual official high and low records may vary slightly from our data, if they occured in-between our weather recording intervals... More about our weather records

Advertising

Yonkers Weather History for the Previous 24 Hours

Scroll right to see more
 ConditionsComfort  
Time TempWeatherWind HumidityBarometerVisibility
1:51 PM
Wed, Jul 27
88 °FScattered clouds.10 mph40%29.95 "Hg10 mi
12:51 PM88 °FScattered clouds.10 mph39%29.93 "Hg10 mi
11:51 AM88 °FSunny.7 mph38%29.93 "Hg10 mi
10:51 AM86 °FSunny.No wind43%29.94 "Hg10 mi
9:51 AM83 °FSunny.6 mph46%29.95 "Hg10 mi
8:51 AM80 °FSunny.3 mph51%29.95 "Hg10 mi
7:51 AM78 °FSunny.No wind58%29.95 "Hg10 mi
6:51 AM73 °FSunny.No wind71%29.95 "Hg10 mi
5:51 AM72 °FClear.No wind71%29.94 "Hg10 mi
4:51 AM73 °FClear.No wind69%29.93 "Hg10 mi
3:51 AM73 °FClear.3 mph66%29.93 "Hg10 mi
2:51 AM75 °FClear.No wind62%29.92 "Hg10 mi
1:51 AM76 °FClear.3 mph60%29.92 "Hg10 mi
12:51 AM78 °FClear.6 mph54%29.91 "Hg10 mi
11:51 PM
Tue, Jul 26
80 °FClear.No wind49%29.92 "Hg10 mi
10:51 PM80 °FClear.3 mph49%29.90 "Hg10 mi
9:51 PM83 °FClear.5 mph44%29.90 "Hg10 mi
8:51 PM84 °FSunny.7 mph43%29.88 "Hg10 mi
7:51 PM87 °FSunny.9 mph39%29.86 "Hg10 mi
6:51 PM89 °FSunny.12 mph36%29.85 "Hg10 mi
5:51 PM91 °FSunny.9 mph36%29.84 "Hg10 mi
4:51 PM91 °FPartly sunny.12 mph37%29.84 "Hg10 mi
3:51 PM90 °FPartly sunny.10 mph38%29.85 "Hg10 mi
Weather by CustomWeather, © 2016

See weather overviewHow to use our weather pages